Location: Newark
(50.5930°N, 3.6720°W)
Time: 12:33:48
(UTC+00:00)

Envisat - Pass Details

Date: 03 September 2019
Orbit: 764 x 766 km, 98.1° (Epoch: 22 September)

Event Time Altitude Azimuth Distance (km) Brightness Sun altitude
Rises 19:56:16 0° 218° (SW) 3,224 6.4 -9.9°
Reaches altitude 10° 19:59:47 10° 244° (WSW) 2,304 6.0 -10.4°
Maximum altitude 20:02:19 14° 275° (W) 2,056 6.4 -10.8°
Drops below altitude 10° 20:04:51 10° 305° (NW) 2,312 7.0 -11.1°
Sets 20:08:25 0° 331° (NNW) 3,245 7.3 -11.6°
